{"data":{"norad_id":58742,"epoch":"2026-05-25T01:09:41.105952Z","epoch_age_seconds":81042,"freshness":"FRESH","line1":"1 58742U 24005Q   26145.04839243  .00001067  00000+0  48302-4 0  9992","line2":"2 58742  43.0031 148.3669 0000958 264.7873  95.2869 15.27578799132213","mean_motion":15.27578799,"eccentricity":9.58e-5,"inclination_deg":43.0031,"raan_deg":148.3669,"arg_perigee_deg":264.7873,"mean_anomaly_deg":95.2869,"bstar":4.8302e-5,"rev_number":13221,"period_min":94.266822827252,"perigee_km":482.39539029555,"apogee_km":483.70999424059,"semimajor_km":6861.1896922681,"source":"CELESTRAK","updated_at":"2026-05-25T13:38:18.738355Z"}}